Вернуться в каталог

STARLINK-11414

АктивенСвязьVLEO
NORAD 61948·PAYLOAD·🇺🇸 United States

Запущен Nov 14, 2024 с Vandenberg Space Force Base

Loading…

Ближайшие Пролёты (ближайшие 24 часа)

TLE

СвежийSource: CelesTrak SupGP

Эпоха: Sep 15, 2026, 03:13 UTC

1 61948C 24209K   26258.13451389  .00038873  00000+0  32092-3 0  2587
2 61948  53.1572 157.1977 0001003  82.2381 315.3399 15.69637239    13

Отслеживайте STARLINK-11414 в реальном времени с AllMySat

Download on the App Store